EW1423 Weather Reports


time (UTC)temp
C
wind
direction
speed
KPH
gust
KPH
rain 1hr
cm
rain 24hr
cm
rain mn
cm
humidity
%
barometer
mb
20260509160804 25 326 3.2 8.0 0.00 0.00 0.00 42 1013.9
20260509160303 25 5 1.6 8.0 0.00 0.00 0.00 43 1013.9
20260509155804 25 33 3.2 8.0 0.00 0.00 0.00 44 1013.9
20260509155306 25 300 3.2 8.0 0.00 0.00 0.00 43 1013.9
20260509154804 25 50 3.2 9.7 0.00 0.00 0.00 42 1013.9
20260509154303 26 106 1.6 3.2 0.00 0.00 0.00 43 1013.9
20260509153803 26 286 3.2 8.0 0.00 0.00 0.00 41 1013.9
20260509153303 26 65 1.6 8.0 0.00 0.00 0.00 40 1014.0
20260509152803 27 90 1.6 3.2 0.00 0.00 0.00 38 1014.0
20260509151304 26 39 3.2 8.0 0.00 0.00 0.00 41 1014.3
20260509150804 25 313 0.0 8.0 0.00 0.00 0.00 42 1014.3
20260509150303 25 358 1.6 4.8 0.00 0.00 0.00 43 1014.3
20260509145804 25 355 1.6 4.8 0.00 0.00 0.00 44 1014.3
20260509145306 23 355 1.6 3.2 0.00 0.00 0.00 47 1014.4
20260509144803 23 355 1.6 4.8 0.00 0.00 0.00 47 1014.4
20260509144303 23 307 1.6 8.0 0.00 0.00 0.00 47 1014.4
20260509143803 25 300 1.6 4.8 0.00 0.00 0.00 47 1014.4
20260509143303 25 5 0.0 8.0 0.00 0.00 0.00 45 1014.4
20260509142803 26 311 3.2 8.0 0.00 0.00 0.00 48 1014.4
20260509142306 25 28 3.2 8.0 0.00 0.00 0.00 44 1014.6
20260509141803 25 36 1.6 9.7 0.00 0.00 0.00 45 1014.6
20260509140803 26 51 3.2 8.0 0.00 0.00 0.00 43 1014.9
20260509140304 26 56 1.6 4.8 0.00 0.00 0.00 45 1014.9
20260509135804 25 289 3.2 8.0 0.00 0.00 0.00 45 1014.9
20260509134803 26 78 3.2 9.7 0.00 0.00 0.00 44 1014.9
20260509134304 26 122 3.2 8.0 0.00 0.00 0.00 45 1014.9
20260509133804 26 330 3.2 8.0 0.00 0.00 0.00 43 1015.4
20260509133304 25 77 1.6 4.8 0.00 0.00 0.00 43 1015.4
20260509132804 25 167 1.6 8.0 0.00 0.00 0.00 44 1015.4
20260509132306 25 29 1.6 3.2 0.00 0.00 0.00 47 1015.4
20260509131803 24 342 1.6 4.8 0.00 0.00 0.00 49 1015.4
20260509131304 23 34 1.6 8.0 0.00 0.00 0.00 53 1015.4
20260509130803 22 18 1.6 3.2 0.00 0.00 0.00 55 1015.4
20260509130303 22 18 3.2 4.8 0.00 0.00 0.00 53 1015.4
20260509125803 22 22 1.6 4.8 0.00 0.00 0.00 52 1015.5
20260509125307 23 74 1.6 4.8 0.00 0.00 0.00 53 1015.5
20260509124804 24 66 1.6 4.8 0.00 0.00 0.00 53 1015.5
20260509124303 25 90 1.6 4.8 0.00 0.00 0.00 56 1015.8
20260509123804 25 46 3.2 8.0 0.00 0.00 0.00 51 1015.8
20260509123303 25 81 3.2 8.0 0.00 0.00 0.00 52 1015.8
20260509122804 25 35 3.2 8.0 0.00 0.00 0.00 50 1015.8
20260509122306 25 123 1.6 4.8 0.00 0.00 0.00 48 1015.8
20260509121804 25 102 3.2 8.0 0.00 0.00 0.00 51 1015.9
20260509121303 25 290 1.6 8.0 0.00 0.00 0.00 52 1016.2
20260509120804 25 177 3.2 8.0 0.00 0.00 0.00 53 1016.2
20260509115803 23 146 1.6 4.8 0.00 0.00 0.00 49 1016.2
20260509115306 23 94 1.6 4.8 0.00 0.00 0.00 54 1016.2
20260509114804 23 160 3.2 8.0 0.00 0.00 0.00 48 1016.2
20260509114304 23 105 1.6 4.8 0.00 0.00 0.00 49 1016.3
20260509113304 24 281 1.6 3.2 0.00 0.00 0.00 51 1016.9
20260509112803 23 290 1.6 4.8 0.00 0.00 0.00 52 1016.9
20260509111803 23 188 1.6 4.8 0.00 0.00 0.00 50 1016.9
20260509110804 23 165 1.6 4.8 0.00 0.00 0.00 52 1016.9
20260509110304 23 172 3.2 8.0 0.00 0.00 0.00 51 1016.9
20260509105306 23 181 3.2 11.3 0.00 0.00 0.00 54 1016.9
20260509103304 22 87 1.6 4.8 0.00 0.00 0.00 54 1017.2
20260509102804 22 189 3.2 8.0 0.00 0.00 0.00 52 1017.2
20260509102305 22 72 1.6 3.2 0.00 0.00 0.00 54 1017.2
20260509101303 22 34 1.6 8.0 0.00 0.00 0.00 56 1017.3
20260509100303 21 110 3.2 4.8 0.00 0.00 0.00 58 1017.6
20260509095804 22 101 1.6 8.0 0.00 0.00 0.00 53 1017.6
20260509095306 22 180 1.6 4.8 0.00 0.00 0.00 54 1017.6
20260509094803 22 16 1.6 4.8 0.00 0.00 0.00 55 1017.6
20260509094304 21 98 1.6 3.2 0.00 0.00 0.00 54 1017.6
20260509093803 20 100 1.6 4.8 0.00 0.00 0.00 56 1017.6
20260509093303 20 316 0.0 3.2 0.00 0.00 0.00 59 1017.6
20260509092804 20 305 0.0 3.2 0.00 0.00 0.00 56 1017.6
20260509092305 20 298 1.6 8.0 0.00 0.00 0.00 58 1017.6
20260509091803 20 115 3.2 8.0 0.00 0.00 0.00 56 1017.6
20260509091303 20 119 3.2 8.0 0.00 0.00 0.00 53 1017.6
20260509090803 20 259 1.6 8.0 0.00 0.00 0.00 54 1017.6
20260509090304 20 71 1.6 3.2 0.00 0.00 0.00 58 1017.6
20260509085803 20 60 1.6 8.0 0.00 0.00 0.00 54 1017.6
20260509085306 20 136 1.6 3.2 0.00 0.00 0.00 53 1017.6
20260509084804 20 101 0.0 3.2 0.00 0.00 0.00 55 1017.6
20260509084303 20 120 0.0 4.8 0.00 0.00 0.00 56 1017.6
20260509083804 19 119 0.0 4.8 0.00 0.00 0.00 62 1017.7
20260509082306 18 108 1.6 4.8 0.00 0.00 0.00 63 1017.8
20260509081803 18 91 1.6 8.0 0.00 0.00 0.00 67 1017.8
20260509081303 18 100 1.6 3.2 0.00 0.00 0.00 66 1018.0
20260509080804 17 101 0.0 8.0 0.00 0.00 0.00 68 1018.0
20260509080303 17 178 1.6 4.8 0.00 0.00 0.00 67 1018.0
20260509075804 17 179 1.6 4.8 0.00 0.00 0.00 67 1018.0
20260509075306 17 94 1.6 8.0 0.00 0.00 0.00 69 1018.0
20260509074803 17 27 1.6 3.2 0.00 0.00 0.00 68 1018.0
20260509074304 17 10 1.6 4.8 0.00 0.00 0.00 71 1017.9
20260509073804 16 17 1.6 4.8 0.00 0.00 0.00 72 1018.0
20260509073304 16 116 1.6 3.2 0.00 0.00 0.00 71 1018.0
20260509072803 16 116 1.6 3.2 0.00 0.00 0.00 73 1018.0
20260509072306 15 116 1.6 4.8 0.00 0.00 0.00 74 1018.0
20260509071304 15 86 0.0 1.6 0.00 0.00 0.00 77 1018.0
20260509070803 14 86 0.0 1.6 0.00 0.00 0.00 79 1018.0
20260509070303 13 86 1.6 4.8 0.00 0.00 0.00 80 1018.0
20260509065803 13 109 0.0 3.2 0.00 0.00 0.00 84 1018.0
20260509065306 12 109 1.6 3.2 0.00 0.00 0.00 82 1018.0
20260509064804 12 109 1.6 3.2 0.00 0.00 0.00 81 1018.0
20260509064304 12 92 1.6 4.8 0.00 0.00 0.00 86 1018.0
20260509063304 11 66 0.0 1.6 0.00 0.00 0.00 88 1018.0
20260509062804 11 66 0.0 3.2 0.00 0.00 0.00 88 1018.0
20260509062306 11 66 0.0 3.2 0.00 0.00 0.00 89 1018.0
20260509061804 11 66 1.6 3.2 0.00 0.00 0.00 89 1018.0
20260509060803 11 66 0.0 3.2 0.00 0.00 0.00 89 1018.0
20260509060303 10 66 0.0 1.6 0.00 0.00 0.00 90 1018.0
20260509055804 10 66 1.6 3.2 0.00 0.00 0.00 90 1018.0
20260509055306 10 66 0.0 1.6 0.00 0.00 0.00 92 1018.0
20260509054803 10 66 0.0 3.2 0.00 0.00 0.00 92 1018.0
20260509054304 10 66 0.0 1.6 0.00 0.00 0.00 92 1018.0
20260509053303 10 66 0.0 0.0 0.00 0.00 0.00 94 1018.0
20260509052804 9 66 0.0 0.0 0.00 0.00 0.00 95 1018.0
20260509051803 8 66 0.0 0.0 0.00 0.00 0.00 96 1018.0
20260509051304 8 66 0.0 1.6 0.00 0.00 0.00 95 1018.0
20260509050803 8 66 0.0 0.0 0.00 0.00 0.00 96 1017.9
20260509045803 8 66 0.0 0.0 0.00 0.00 0.00 98 1017.9
20260509045306 8 66 0.0 1.6 0.00 0.00 0.00 98 1017.8
20260509044804 7 66 0.0 1.6 0.00 0.00 0.00 100 1017.8
20260509044304 7 66 0.0 0.0 0.00 0.00 0.00 100 1017.8
20260509043804 7 66 0.0 0.0 0.00 0.00 0.00 100 1017.8
20260509043304 7 66 0.0 0.0 0.00 0.00 0.00 100 1017.8
20260509042803 7 66 0.0 0.0 0.00 0.00 0.00 100 1017.8
20260509042306 7 66 0.0 0.0 0.00 0.00 0.00 100 1017.8
20260509041804 7 66 0.0 0.0 0.00 0.00 0.00 100 1017.8
20260509041303 7 66 0.0 0.0 0.00 0.00 0.00 100 1017.8
20260509040804 7 66 0.0 0.0 0.00 0.00 0.00 100 1017.9
20260509035803 7 66 0.0 0.0 0.00 0.00 0.00 100 1017.7
20260509035306 6 66 0.0 0.0 0.00 0.00 0.00 100 1017.7
20260509034804 6 66 0.0 0.0 0.00 0.00 0.00 100 1017.7
20260509034304 6 66 0.0 0.0 0.00 0.00 0.00 100 1017.7
20260509033304 6 66 0.0 0.0 0.00 0.00 0.00 100 1017.7
20260509032804 6 66 0.0 0.0 0.00 0.00 0.00 100 1017.7
20260509032306 6 66 0.0 0.0 0.00 0.00 0.00 100 1017.7
20260509031803 6 66 0.0 0.0 0.00 0.00 0.00 100 1017.7
20260509031303 6 66 0.0 0.0 0.00 0.00 0.00 100 1017.7
20260509025804 6 66 0.0 0.0 0.00 0.00 0.00 99 1017.7
20260509025306 6 66 0.0 0.0 0.00 0.00 0.00 99 1017.7
20260509024804 6 66 0.0 0.0 0.00 0.00 0.00 99 1017.7
20260509024303 6 66 0.0 0.0 0.00 0.00 0.00 99 1017.6
20260509023303 6 66 0.0 0.0 0.00 0.00 0.00 100 1017.7
20260509022804 6 66 0.0 0.0 0.00 0.00 0.00 99 1017.7
20260509022306 6 66 0.0 0.0 0.00 0.00 0.00 99 1017.7
20260509021803 6 66 0.0 0.0 0.00 0.00 0.00 99 1017.7
20260509021303 6 66 0.0 0.0 0.00 0.00 0.00 99 1017.7
20260509020803 6 66 0.0 0.0 0.00 0.00 0.00 99 1017.7
20260509020304 6 66 0.0 0.0 0.00 0.00 0.00 99 1017.7
20260509015803 6 66 0.0 0.0 0.00 0.00 0.00 99 1017.7
20260509015319 6 66 0.0 0.0 0.00 0.00 0.00 98 1017.7
20260509014803 6 66 0.0 0.0 0.00 0.00 0.00 98 1017.7
20260509014304 6 66 0.0 0.0 0.00 0.00 0.00 98 1017.7
20260509013304 7 66 0.0 0.0 0.00 0.00 0.00 99 1017.7
20260509012804 7 66 0.0 0.0 0.00 0.00 0.00 98 1017.7
20260509012307 7 66 0.0 0.0 0.00 0.00 0.00 98 1017.7
20260509011803 7 66 0.0 0.0 0.00 0.00 0.00 98 1017.7
20260509010304 7 66 0.0 0.0 0.00 0.00 0.00 97 1017.6
20260509005803 7 66 0.0 0.0 0.00 0.00 0.00 97 1017.5
20260509005306 7 66 0.0 0.0 0.00 0.00 0.00 97 1017.5
20260509004803 7 66 0.0 0.0 0.00 0.00 0.00 97 1017.5
20260509003803 7 66 0.0 0.0 0.00 0.00 0.00 97 1017.5
20260509003303 7 66 0.0 0.0 0.00 0.00 0.00 97 1017.6
20260509002803 7 66 0.0 0.0 0.00 0.00 0.00 96 1017.6
20260509002306 7 66 0.0 0.0 0.00 0.00 0.00 96 1017.6
20260509001804 7 66 0.0 0.0 0.00 0.00 0.00 96 1017.6
20260509001304 7 66 0.0 0.0 0.00 0.00 0.00 96 1017.6
20260509000819 7 66 0.0 0.0 0.00 0.00 0.00 95 1017.7
20260509000303 8 66 0.0 0.0 0.00 0.00 0.00 95 1017.7
20260508235803 8 66 0.0 0.0 0.00 0.00 0.00 94 1017.7
20260508235306 8 66 0.0 0.0 0.00 0.00 0.00 94 1017.8
20260508234803 8 66 0.0 0.0 0.00 0.00 0.00 93 1017.7
20260508233304 8 66 0.0 0.0 0.00 0.00 0.00 93 1017.6
20260508232803 9 66 0.0 0.0 0.00 0.00 0.00 93 1017.6
20260508232306 9 66 0.0 1.6 0.00 0.00 0.00 93 1017.6
20260508231804 9 66 0.0 0.0 0.00 0.00 0.00 93 1017.6
20260508230804 9 66 0.0 1.6 0.00 0.03 0.00 93 1017.6
20260508230303 9 66 0.0 1.6 0.00 0.03 0.00 93 1017.6
20260508225803 9 66 0.0 1.6 0.00 0.03 0.00 93 1017.6
20260508225306 9 66 0.0 0.0 0.00 0.03 0.00 93 1017.6
20260508224804 9 66 0.0 0.0 0.00 0.03 0.00 93 1017.6
20260508224304 9 66 0.0 0.0 0.00 0.03 0.00 92 1017.6
20260508223803 9 66 0.0 0.0 0.00 0.03 0.00 92 1017.6
20260508222306 10 66 0.0 0.0 0.00 0.03 0.00 91 1017.5
20260508221803 10 66 0.0 0.0 0.00 0.03 0.00 91 1017.5
20260508221304 10 66 0.0 0.0 0.00 0.03 0.00 90 1017.5
20260508220303 10 66 0.0 0.0 0.00 0.03 0.00 90 1017.5
20260508215803 10 66 0.0 0.0 0.00 0.03 0.03 89 1017.5
20260508215306 10 66 0.0 0.0 0.00 0.03 0.03 89 1017.5
20260508214803 10 66 0.0 0.0 0.00 0.03 0.03 88 1017.5
20260508214304 10 66 0.0 1.6 0.00 0.03 0.03 88 1017.5
20260508213804 10 66 0.0 1.6 0.00 0.03 0.03 88 1017.4
20260508212803 11 66 0.0 1.6 0.00 0.03 0.03 88 1017.4
20260508212306 11 66 0.0 1.6 0.00 0.03 0.03 89 1017.4
20260508211804 11 66 0.0 0.0 0.00 0.03 0.03 88 1017.4
20260508211304 11 66 0.0 1.6 0.00 0.03 0.03 88 1017.4
20260508210303 11 66 0.0 1.6 0.00 0.03 0.03 88 1017.3
20260508205319 11 66 0.0 0.0 0.00 0.03 0.03 86 1017.1
20260508204803 11 66 0.0 0.0 0.00 0.03 0.03 86 1017.1
20260508204303 11 66 0.0 0.0 0.00 0.03 0.03 85 1017.1
20260508203804 12 66 0.0 1.6 0.00 0.03 0.03 84 1017.1
20260508203304 12 66 0.0 0.0 0.00 0.03 0.03 83 1017.1
20260508201303 13 66 0.0 1.6 0.00 0.03 0.03 79 1017.0
20260508200804 13 66 0.0 0.0 0.00 0.03 0.03 77 1017.0
20260508200304 13 66 0.0 1.6 0.00 0.03 0.03 77 1016.7
20260508195804 13 66 0.0 1.6 0.00 0.03 0.03 78 1016.7
20260508195306 13 66 0.0 0.0 0.00 0.03 0.03 76 1016.7
20260508194803 13 66 0.0 0.0 0.00 0.03 0.03 76 1016.7
20260508193804 14 66 0.0 1.6 0.00 0.03 0.03 74 1015.9
20260508193304 15 66 0.0 1.6 0.00 0.03 0.03 72 1015.9
20260508192804 15 66 0.0 0.0 0.00 0.03 0.03 71 1015.9
20260508192306 15 66 0.0 1.6 0.00 0.03 0.03 70 1015.9
20260508191803 15 66 0.0 1.6 0.00 0.03 0.03 69 1015.9
20260508191303 15 66 0.0 4.8 0.00 0.03 0.03 68 1015.9
20260508190804 16 15 1.6 8.0 0.00 0.03 0.03 68 1015.9
20260508190304 16 1 1.6 4.8 0.00 0.03 0.03 67 1015.9
20260508185306 16 9 1.6 4.8 0.00 0.03 0.03 67 1015.9
20260508184804 16 16 1.6 8.0 0.00 0.03 0.03 67 1015.9
20260508184304 16 24 1.6 8.0 0.00 0.03 0.03 67 1015.5
20260508183303 16 335 1.6 8.0 0.00 0.03 0.03 66 1015.5
20260508182804 17 75 1.6 4.8 0.00 0.03 0.03 67 1015.5
20260508182306 17 65 1.6 8.0 0.00 0.03 0.03 66 1015.5
20260508181304 17 29 0.0 3.2 0.00 0.03 0.03 66 1015.3
20260508180304 17 77 1.6 8.0 0.00 0.03 0.03 64 1015.3
20260508175306 17 58 3.2 12.9 0.00 0.03 0.03 64 1015.3
20260508174804 18 120 1.6 8.0 0.00 0.03 0.03 63 1015.1
20260508174303 18 13 1.6 8.0 0.00 0.03 0.03 62 1015.1
20260508173803 18 53 3.2 8.0 0.00 0.03 0.03 62 1015.1
20260508173303 18 21 3.2 9.7 0.00 0.03 0.03 61 1015.1
20260508172307 18 21 3.2 11.3 0.00 0.03 0.03 60 1015.1
20260508171804 19 74 3.2 9.7 0.00 0.03 0.03 59 1015.1
20260508171304 19 26 3.2 8.0 0.00 0.03 0.03 59 1015.0
20260508165803 20 89 3.2 8.0 0.00 0.03 0.03 57 1014.7
20260508165306 20 101 3.2 8.0 0.00 0.03 0.03 57 1014.7
20260508164803 20 59 4.8 9.7 0.00 0.03 0.03 56 1014.7
20260508164303 21 75 3.2 8.0 0.00 0.03 0.03 55 1014.7
20260508163804 21 80 3.2 8.0 0.00 0.03 0.03 54 1014.7
20260508163304 21 87 1.6 8.0 0.00 0.03 0.03 57 1014.7
20260508162306 21 76 4.8 8.0 0.00 0.03 0.03 54 1014.7
20260508161804 21 85 3.2 8.0 0.00 0.03 0.03 54 1014.7
20260508161303 21 2 4.8 12.9 0.00 0.03 0.03 54 1014.8